Regional Weather Roundup
Issued by NWS

Home | Current Version | Previous Version | Text Only | Print | Product List | Glossary Off
Versions: 1 2 3 4 5 6 7 8 9 10 11 12 13 14 15 16 17 18 19 20 21 22 23 24 25 26 27 28 29 30 31 32 33 34 35 36 37 38 39 40 41 42 43 44 45 46 47 48 49 50

000
ASUS44 KMEG 020710
RWRTN
TENNESSEE HOURLY STATE WEATHER ROUNDUP
NATIONAL WEATHER SERVICE MEMPHIS TN
200 AM CDT SUN AUG 02 2015

TNZ002-004-019-021-049-052-054-088>092-020800-
WEST TENNESSEE

CITY           SKY/WX    TMP DP  RH WIND       PRES   REMARKS
MEMPHIS INTL   CLEAR     79  68  69 CALM      29.96S
NWS MEMPHIS      N/A     71 N/A N/A MISG        N/A
JACKSON        CLEAR     71  68  90 CALM      29.97F
DYERSBURG        N/A    N/A N/A N/A MISG        N/A
PARIS          CLEAR     66  64  94 CALM      29.99F
LEXINGTON      CLEAR     70  70 100 CALM      29.97S
$$

TNZ008-025-027-028-033-062-065-066-020800-
NORTH MIDDLE TENNESSEE

CITY           SKY/WX    TMP DP  RH WIND       PRES   REMARKS
NASHVILLE      CLEAR     68  62  81 CALM      29.99F
CLARKSVILLE    CLEAR     66  64  93 CALM      29.99S
SMYRNA         CLEAR     63  61  93 CALM      30.00S
CROSSVILLE     CLEAR     64  60  87 CALM      30.04F
$$

TNZ061-075-076-078-094-096-097-020800-
SOUTH MIDDLE TENNESSEE

CITY           SKY/WX    TMP DP  RH WIND       PRES   REMARKS
FAYETTEVILLE   CLEAR     70  64  83 NE6       29.99S
TULLAHOMA      CLEAR     68  61  77 CALM      30.01S
WINCHESTER     CLEAR     63  63 100 CALM      30.00S
MCMINNVILLE    CLEAR     64  64 100 CALM      30.00F
COLUMBIA       CLEAR     70  70 100 CALM      29.98S
SHELBYVILLE    CLEAR     66  66 100 CALM      30.00S
$$

TNZ017-018-042-046-047-020800-
NORTHEAST TENNESSEE

CITY           SKY/WX    TMP DP  RH WIND       PRES   REMARKS
TRI CITIES     PTCLDY    61  59  93 CALM      30.02S
ELIZABETHTON   SUNNY     59  57  94 CALM      30.03S
$$

TNZ012-013-036-069-073-074-020800-
CENTRAL EAST TENNESSEE

CITY           SKY/WX    TMP DP  RH WIND       PRES   REMARKS
KNOXVILLE      PTCLDY    69  64  84 CALM      29.98F
OAK RIDGE      CLEAR     66  62  87 CALM      30.00F
GATLINBURG     SUNNY     64  61  88 CALM      29.99F
MORRISTOWN     SUNNY     66  63  88 CALM      30.01S
$$

TNZ083-085-099-020800-
SOUTHEAST TENNESSEE

CITY           SKY/WX    TMP DP  RH WIND       PRES   REMARKS
CHATTANOOGA    CLEAR     70  66  87 CALM      29.97F
$$

SKY/WX REPORTED AS FAIR MEANS FEW OR NO CLOUDS BELOW
12 THOUSAND FEET.




USA.gov is the U.S. government's official web portal to all federal, state and local government web resources and services.